WZZ4D EPGD-EKBI

Flight info

Callsign WZZ4D
Flight time 1h 1m
Altitude 38000
Route DEXIR Y100 MALOX L621 LUSID DCT ODDON DCT LOKSA
Aircraft A321/M-SDE1E2E3FGIJ1J4RWXY/LB1

Departure

Time 2025-10-09 14:17
Airport Gdańsk Lech Wałęsa Airport (EPGD)

Arrival

Time 2025-10-09 15:18
Airport Billund Airport (EKBI)
Time Latitude Longitude Altitude Speed Heading
2025-10-09 13:53 54.38063 18.46379 460 ft 0 kts 203°
2025-10-09 14:08 54.37997 18.46393 459 ft 4 kts 114°
2025-10-09 14:09 54.37982 18.46450 459 ft 2 kts 114°
2025-10-09 14:09 54.37952 18.46558 459 ft 8 kts 115°
2025-10-09 14:10 54.37879 18.46818 459 ft 14 kts 111°
2025-10-09 14:10 54.37844 18.46975 460 ft 15 kts 110°
2025-10-09 14:11 54.37762 18.47329 460 ft 17 kts 113°
2025-10-09 14:11 54.37672 18.47685 466 ft 16 kts 113°
2025-10-09 14:12 54.37557 18.48154 473 ft 13 kts 113°
2025-10-09 14:12 54.37500 18.48386 478 ft 8 kts 113°
2025-10-09 14:13 54.37445 18.48604 480 ft 12 kts 113°
2025-10-09 14:13 54.37386 18.48841 483 ft 11 kts 113°
2025-10-09 14:14 54.37325 18.49087 488 ft 12 kts 116°
2025-10-09 14:14 54.37179 18.49093 495 ft 9 kts 201°
2025-10-09 14:15 54.37173 18.48993 486 ft 1 kts 291°
2025-10-09 14:15 54.37562 18.47401 466 ft 143 kts 292°
2025-10-09 14:16 54.38362 18.44038 1955 ft 146 kts 292°
2025-10-09 14:16 54.39228 18.40569 2905 ft 180 kts 292°
2025-10-09 14:17 54.40317 18.36182 3657 ft 214 kts 292°
2025-10-09 14:17 54.41480 18.31461 5435 ft 216 kts 294°
2025-10-09 14:18 54.42667 18.26628 6993 ft 224 kts 294°
2025-10-09 14:18 54.43298 18.21406 8461 ft 238 kts 255°
2025-10-09 14:19 54.40693 18.17293 9367 ft 286 kts 208°
2025-10-09 14:19 54.37005 18.14269 10459 ft 306 kts 223°
2025-10-09 14:20 54.35181 18.07648 11117 ft 323 kts 273°
2025-10-09 14:20 54.36221 18.00128 12517 ft 328 kts 289°
2025-10-09 14:21 54.37542 17.92568 13960 ft 335 kts 289°
2025-10-09 14:21 54.38886 17.84829 15215 ft 343 kts 289°
2025-10-09 14:22 54.40260 17.76892 16473 ft 351 kts 290°
2025-10-09 14:22 54.40949 17.72904 17084 ft 355 kts 290°
2025-10-09 14:23 54.43085 17.60433 18859 ft 367 kts 290°
2025-10-09 14:23 54.44534 17.51939 19983 ft 373 kts 290°
2025-10-09 14:24 54.45983 17.43370 21120 ft 379 kts 290°
2025-10-09 14:24 54.47454 17.34593 22258 ft 385 kts 290°
2025-10-09 14:25 54.48946 17.25683 23360 ft 391 kts 290°
2025-10-09 14:25 54.50460 17.16633 24297 ft 396 kts 290°
2025-10-09 14:26 54.52747 17.02828 25608 ft 403 kts 290°
2025-10-09 14:28 54.59735 16.59979 29286 ft 423 kts 290°
2025-10-09 14:30 54.65271 16.25150 31669 ft 436 kts 289°
2025-10-09 14:32 54.72236 15.80377 35282 ft 425 kts 289°
2025-10-09 14:34 54.84731 15.46613 37519 ft 418 kts 307°
2025-10-09 14:36 54.94784 15.10591 38138 ft 422 kts 288°
2025-10-09 14:38 55.00334 14.76225 38149 ft 421 kts 288°
2025-10-09 14:40 55.07285 14.32089 38169 ft 418 kts 288°
2025-10-09 14:42 55.12529 13.98022 38166 ft 413 kts 288°
2025-10-09 14:44 55.19042 13.54716 38158 ft 409 kts 287°
2025-10-09 14:46 55.24671 13.16241 38154 ft 406 kts 287°
2025-10-09 14:48 55.30138 12.77957 37743 ft 403 kts 287°
2025-10-09 14:50 55.35174 12.41842 34150 ft 389 kts 289°
2025-10-09 14:52 55.39969 12.06671 30768 ft 353 kts 287°
2025-10-09 14:54 55.44277 11.74320 27726 ft 325 kts 286°
2025-10-09 14:56 55.48232 11.44028 25056 ft 311 kts 284°
2025-10-09 14:57 55.48708 11.40318 24730 ft 310 kts 284°
2025-10-09 14:57 55.49652 11.32945 24056 ft 307 kts 284°
2025-10-09 14:58 55.50580 11.25695 23336 ft 303 kts 283°
2025-10-09 14:58 55.51947 11.14910 22291 ft 297 kts 283°
2025-10-09 14:59 55.52837 11.07843 21592 ft 293 kts 283°
2025-10-09 14:59 55.53712 11.00871 20897 ft 288 kts 283°
2025-10-09 15:00 55.54566 10.94009 20209 ft 284 kts 283°
2025-10-09 15:00 55.55408 10.87226 19526 ft 281 kts 283°
2025-10-09 15:01 55.56239 10.80527 18849 ft 278 kts 283°
2025-10-09 15:01 55.56649 10.77207 18515 ft 276 kts 283°
2025-10-09 15:02 55.57852 10.67364 17474 ft 271 kts 283°
2025-10-09 15:02 55.58718 10.60910 16723 ft 269 kts 285°
2025-10-09 15:03 55.59714 10.54573 15962 ft 267 kts 286°
2025-10-09 15:03 55.60698 10.48307 15198 ft 266 kts 286°
2025-10-09 15:04 55.61667 10.42019 14449 ft 265 kts 286°
2025-10-09 15:04 55.62623 10.35744 13671 ft 264 kts 285°
2025-10-09 15:05 55.63571 10.29488 12893 ft 261 kts 285°
2025-10-09 15:05 55.64039 10.26390 12522 ft 260 kts 285°
2025-10-09 15:06 55.64966 10.20251 11776 ft 257 kts 285°
2025-10-09 15:06 55.66336 10.11140 10666 ft 254 kts 285°
2025-10-09 15:07 55.67233 10.05135 10201 ft 252 kts 285°
2025-10-09 15:07 55.68134 9.99062 9608 ft 258 kts 284°
2025-10-09 15:08 55.69022 9.93017 8611 ft 249 kts 285°
2025-10-09 15:08 55.69891 9.87135 7624 ft 246 kts 285°
2025-10-09 15:09 55.70323 9.84208 7158 ft 245 kts 285°
2025-10-09 15:09 55.71189 9.78305 6350 ft 247 kts 285°
2025-10-09 15:10 55.72053 9.72397 5586 ft 245 kts 285°
2025-10-09 15:10 55.73324 9.63653 4593 ft 237 kts 285°
2025-10-09 15:11 55.73987 9.59044 4406 ft 220 kts 285°
2025-10-09 15:11 55.74712 9.54021 4228 ft 201 kts 285°
2025-10-09 15:12 55.75014 9.49103 3738 ft 201 kts 270°
2025-10-09 15:12 55.74885 9.44229 3208 ft 196 kts 269°
2025-10-09 15:13 55.74817 9.41822 2945 ft 195 kts 270°
2025-10-09 15:13 55.74681 9.37062 2425 ft 189 kts 269°
2025-10-09 15:14 55.74555 9.32767 1949 ft 154 kts 268°
2025-10-09 15:14 55.74409 9.27748 1397 ft 129 kts 269°
2025-10-09 15:15 55.74315 9.24566 1031 ft 128 kts 266°
2025-10-09 15:15 55.74222 9.21449 681 ft 126 kts 265°
2025-10-09 15:16 55.74129 9.18325 314 ft 126 kts 265°
2025-10-09 15:16 55.74052 9.15790 216 ft 60 kts 266°
2025-10-09 15:17 55.74031 9.15163 222 ft 49 kts 267°
2025-10-09 15:17 55.74068 9.14492 222 ft 7 kts
2025-10-09 15:18 55.74135 9.14490 221 ft 3 kts 357°
2025-10-09 15:18 55.74230 9.14481 219 ft 8 kts 356°
2025-10-09 15:19 55.74368 9.14467 216 ft 12 kts 357°
2025-10-09 15:19 55.74413 9.14468 222 ft 3 kts 17°
2025-10-09 15:20 55.74442 9.14557 220 ft 6 kts 85°
2025-10-09 15:20 55.74445 9.14638 221 ft 6 kts 87°
2025-10-09 15:21 55.74474 9.14688 219 ft 4 kts
2025-10-09 15:21 55.74509 9.14686 217 ft 2 kts 357°
2025-10-09 15:22 55.74527 9.14684 219 ft 0 kts 357°